Home   Weather   Christchurch   Past weeks

Flag for New Zealand Past Weather in Christchurch, New Zealand — Yesterday and Last 2 Weeks

Now
48 °F

Partly cloudy.


Feels Like: 43 °F
Forecast: 52 / 54 °F
Wind: 12 mph from East

Location: Christchurch Airport

Current Time: Sep 26, 2016 at 3:12:37 AM

Latest Report: Sep 26, 2016 at 2:30 AM


Visibility: 5 mi

Pressure: 29.89 "Hg

Humidity: 100%

Dew Point: 48 °F

Location of ChristchurchLocation

Past Weather in Christchurch — Graph

°F

Christchurch Temperature Yesterday

Maximum temperature yesterday: 52 °F (at 12:30 PM)
Minimum temperature yesterday: 46 °F (at 4:30 AM)
Average temperature yesterday: 48 °F

High & Low Weather Summary for the Past Weeks

 TemperatureHumidityPressure
High72 °F (Sep 16, 11:30 AM)100% (Sep 11, 2:30 AM)30.21 "Hg (Sep 11, 2:30 AM)
Low34 °F (Sep 11, 7:00 AM)29% (Sep 12, 6:30 PM)29.59 "Hg (Sep 16, 6:00 PM)
Average50 °F84%29.99 "Hg
* Reported Sep 11 12:00 AM — Sep 26 1:30 AM, Christchurch, Weather by CustomWeather, © 2016

Note: Actual official high and low records may vary slightly from our data, if they occured in-between our weather recording intervals... More about our weather records

Advertising

Christchurch Weather History for the Previous 24 Hours

Scroll right to see more
 ConditionsComfort  
Time TempWeatherWind HumidityBarometerVisibility
1:30 AM
Mon, Sep 26
48 °FPartly cloudy.10 mph94%29.89 "HgN/A
1:00 AM48 °FPassing clouds.9 mph94%29.92 "HgN/A
12:30 AM48 °FScattered showers. Passing clouds.10 mph94%29.92 "HgN/A
12:00 AM48 °FPartly cloudy.12 mph94%29.92 "HgN/A
11:30 PM
Sun, Sep 25
48 °FOvercast.8 mph94%29.92 "HgN/A
11:00 PM48 °FPartly cloudy.9 mph94%29.92 "HgN/A
10:30 PM46 °FPartly cloudy.10 mph100%29.92 "HgN/A
10:00 PM48 °FPassing clouds.9 mph94%29.92 "HgN/A
9:30 PM48 °FSprinkles. Mostly cloudy.12 mph94%29.92 "HgN/A
9:00 PM48 °FOvercast.12 mph94%29.92 "Hg6 mi
8:30 PM48 °FLight rain. Mostly cloudy.10 mph94%29.92 "Hg2 mi
8:00 PM48 °FSprinkles. Mostly cloudy.12 mph94%29.92 "Hg4 mi
7:30 PM48 °FPassing clouds.12 mph94%29.92 "HgN/A
7:00 PM48 °FSprinkles. Partly sunny.12 mph94%29.89 "HgN/A
6:30 PM48 °FSprinkles. Fog.10 mph100%29.89 "Hg2 mi
6:00 PM48 °FMostly cloudy.9 mph94%29.89 "HgN/A
5:30 PM48 °FDrizzle. Mostly cloudy.12 mph94%29.89 "Hg2 mi
5:00 PM48 °FBroken clouds.14 mph94%29.89 "Hg6 mi
4:30 PM50 °FPartly sunny.14 mph82%29.89 "HgN/A
4:00 PM50 °FBroken clouds.13 mph82%29.89 "HgN/A
3:30 PM50 °FPartly sunny.15 mph82%29.89 "HgN/A
3:00 PM50 °FBroken clouds.12 mph88%29.89 "HgN/A
2:30 PM50 °FCloudy.13 mph88%29.92 "HgN/A
2:00 PM52 °FBroken clouds.13 mph82%29.92 "HgN/A
1:30 PM52 °FBroken clouds.13 mph77%29.92 "HgN/A
1:00 PM52 °FScattered showers. Partly sunny.14 mph77%29.92 "HgN/A
12:30 PM52 °FScattered showers. Partly sunny.13 mph82%29.95 "HgN/A
12:00 PM50 °FDrizzle. Broken clouds.12 mph94%29.95 "Hg6 mi
11:30 AM50 °FDrizzle. Mostly cloudy.10 mph94%29.95 "HgN/A
11:00 AM50 °FDrizzle. Partly sunny.12 mph94%29.95 "HgN/A
10:30 AM48 °FDrizzle. Broken clouds.10 mph94%29.95 "HgN/A
10:00 AM48 °FScattered showers. Broken clouds.9 mph94%29.95 "HgN/A
9:30 AM48 °FMostly cloudy.7 mph94%29.95 "HgN/A
9:00 AM48 °FScattered showers. Broken clouds.7 mph94%29.95 "HgN/A
8:30 AM48 °FMostly cloudy.6 mph94%29.95 "HgN/A
8:00 AM46 °FSprinkles. Fog.7 mph100%29.95 "Hg2 mi
7:30 AM46 °FPartly sunny.6 mph100%29.95 "HgN/A
7:00 AM46 °FDrizzle. Overcast.5 mph100%29.92 "HgN/A
6:30 AM46 °FDrizzle. More clouds than sun.6 mph100%29.92 "HgN/A
6:00 AM46 °FPassing clouds.6 mph100%29.92 "HgN/A
5:30 AM46 °FLight rain. Partly cloudy.5 mph100%29.92 "HgN/A
5:00 AM46 °FDrizzle. Mostly cloudy.6 mph100%29.92 "HgN/A
4:30 AM46 °FPassing clouds.7 mph100%29.92 "Hg6 mi
4:00 AM48 °FDrizzle. Mostly cloudy.6 mph94%29.92 "HgN/A
3:30 AM48 °FPartly cloudy.3 mph94%29.92 "HgN/A
3:00 AM48 °FMostly cloudy.5 mph87%29.95 "HgN/A
Weather by CustomWeather, © 2016

See weather overviewHow to use our weather pages